When you browse on this site, cookies collect data to enhance your experience and personalize the content and advertising you see.
Visit our Privacy Policy to learn more. By continuing to use the site, you agree to this use of cookies and data.
  • In Österreich
  • Länderverzeichnis
  • Für 7 Tage
  • Wassertemperatur
  • Satellitenkarten
  • Wetterkarte
  • News
  • Widgets
  • user-avatar
    Anmelden

    Stündliche Wetter Nayda

    Heute, 24 Mai, Freitag

    Zeit Temperatur Niederschläge Wind Luftdruck Luftfeuchtigkeit
    00:00 +16°C° 0 mm 1 m/S 745 mmHg 89%
    01:00 +15°C° 0 mm 1 m/S 745 mmHg 90%
    02:00 +15°C° 0 mm 1 m/S 745 mmHg 90%
    03:00 +15°C° 0 mm 1 m/S 746 mmHg 91%
    04:00 +15°C° 0 mm 1 m/S 746 mmHg 91%
    05:00 +15°C° 0 mm 1 m/S 746 mmHg 92%
    06:00 +16°C° 0 mm 1 m/S 746 mmHg 87%
    07:00 +19°C° 0 mm 1 m/S 746 mmHg 81%
    08:00 +21°C° 0 mm 1 m/S 746 mmHg 76%
    09:00 +23°C° 0.2 mm 2 m/S 746 mmHg 69%
    10:00 +24°C° 0.2 mm 2 m/S 746 mmHg 62%
    11:00 +26°C° 0.2 mm 2 m/S 746 mmHg 55%
    12:00 +26°C° 0.2 mm 2 m/S 746 mmHg 54%
    13:00 +26°C° 0.2 mm 2 m/S 746 mmHg 54%
    14:00 +26°C° 0.2 mm 2 m/S 745 mmHg 54%
    15:00 +26°C° 0.6 mm 2 m/S 745 mmHg 59%
    16:00 +25°C° 0.6 mm 2 m/S 745 mmHg 64%
    17:00 +24°C° 0.6 mm 2 m/S 745 mmHg 70%
    18:00 +23°C° 0.5 mm 2 m/S 745 mmHg 77%
    19:00 +20°C° 0.5 mm 2 m/S 745 mmHg 84%
    20:00 +18°C° 0.5 mm 2 m/S 745 mmHg 92%
    21:00 +18°C° 0.3 mm 2 m/S 745 mmHg 93%
    22:00 +17°C° 0.3 mm 2 m/S 745 mmHg 95%
    23:00 +16°C° 0.3 mm 2 m/S 745 mmHg 97%

    Morgen, 25 Mai, Samstag

    Zeit Temperatur Niederschläge Wind Luftdruck Luftfeuchtigkeit
    00:00 +15°C° 0 mm 2 m/S 745 mmHg 97%
    01:00 +15°C° 0 mm 2 m/S 745 mmHg 97%
    02:00 +15°C° 0 mm 2 m/S 745 mmHg 98%
    03:00 +14°C° 0 mm 2 m/S 744 mmHg 98%
    04:00 +14°C° 0 mm 2 m/S 744 mmHg 98%
    05:00 +14°C° 0 mm 2 m/S 744 mmHg 98%
    06:00 +15°C° 0 mm 2 m/S 744 mmHg 94%
    07:00 +16°C° 0 mm 2 m/S 744 mmHg 91%
    08:00 +17°C° 0 mm 2 m/S 745 mmHg 87%
    09:00 +19°C° 0 mm 3 m/S 745 mmHg 79%
    10:00 +21°C° 0 mm 3 m/S 745 mmHg 70%
    11:00 +22°C° 0 mm 4 m/S 744 mmHg 61%
    12:00 +23°C° 0 mm 4 m/S 744 mmHg 58%
    13:00 +25°C° 0 mm 4 m/S 744 mmHg 56%
    14:00 +25°C° 0 mm 4 m/S 744 mmHg 53%
    15:00 +25°C° 0.1 mm 4 m/S 744 mmHg 52%
    16:00 +23°C° 0.1 mm 4 m/S 744 mmHg 51%
    17:00 +23°C° 0.1 mm 4 m/S 744 mmHg 51%
    18:00 +21°C° 0 mm 3 m/S 744 mmHg 58%
    19:00 +19°C° 0 mm 2 m/S 744 mmHg 65%
    20:00 +18°C° 0 mm 1 m/S 744 mmHg 72%
    21:00 +16°C° 0 mm 2 m/S 745 mmHg 75%
    22:00 +15°C° 0 mm 2 m/S 745 mmHg 79%
    23:00 +15°C° 0 mm 2 m/S 745 mmHg 83%

    übermorgen, 26 Mai, Sonntag

    Zeit Temperatur Niederschläge Wind Luftdruck Luftfeuchtigkeit
    00:00 +14°C° 0 mm 2 m/S 745 mmHg 86%
    01:00 +14°C° 0 mm 2 m/S 745 mmHg 89%
    02:00 +13°C° 0 mm 2 m/S 746 mmHg 93%
    03:00 +13°C° 0 mm 2 m/S 746 mmHg 93%
    04:00 +12°C° 0 mm 2 m/S 746 mmHg 94%
    05:00 +12°C° 0 mm 1 m/S 746 mmHg 94%
    06:00 +14°C° 0 mm 2 m/S 746 mmHg 84%
    07:00 +16°C° 0 mm 2 m/S 746 mmHg 73%
    08:00 +17°C° 0 mm 2 m/S 747 mmHg 63%
    09:00 +18°C° 0 mm 2 m/S 747 mmHg 61%
    10:00 +19°C° 0 mm 3 m/S 747 mmHg 59%
    11:00 +19°C° 0 mm 3 m/S 747 mmHg 57%
    12:00 +20°C° 0 mm 4 m/S 746 mmHg 54%
    13:00 +21°C° 0 mm 4 m/S 746 mmHg 52%
    14:00 +22°C° 0 mm 4 m/S 746 mmHg 49%
    15:00 +22°C° 0 mm 4 m/S 746 mmHg 50%
    16:00 +22°C° 0 mm 4 m/S 746 mmHg 50%
    17:00 +22°C° 0 mm 5 m/S 746 mmHg 51%
    18:00 +20°C° 0 mm 4 m/S 746 mmHg 59%
    19:00 +19°C° 0 mm 3 m/S 746 mmHg 67%
    20:00 +17°C° 0 mm 3 m/S 746 mmHg 75%
    21:00 +17°C° 0 mm 3 m/S 746 mmHg 79%
    22:00 +16°C° 0 mm 3 m/S 746 mmHg 84%
    23:00 +14°C° 0 mm 3 m/S 746 mmHg 88%

    27 Mai, Montag

    Zeit Temperatur Niederschläge Wind Luftdruck Luftfeuchtigkeit
    00:00 +14°C° 0 mm 3 m/S 747 mmHg 91%
    01:00 +14°C° 0 mm 2 m/S 747 mmHg 94%
    02:00 +13°C° 0 mm 2 m/S 747 mmHg 97%
    03:00 +13°C° 0 mm 2 m/S 747 mmHg 96%
    04:00 +12°C° 0 mm 1 m/S 748 mmHg 95%
    05:00 +12°C° 0 mm 1 m/S 748 mmHg 94%
    06:00 +14°C° 0 mm 1 m/S 748 mmHg 84%
    07:00 +16°C° 0 mm 2 m/S 748 mmHg 74%
    08:00 +18°C° 0 mm 2 m/S 749 mmHg 63%
    09:00 +19°C° 0 mm 3 m/S 749 mmHg 58%
    10:00 +21°C° 0 mm 3 m/S 749 mmHg 52%
    11:00 +22°C° 0 mm 3 m/S 749 mmHg 47%
    12:00 +24°C° 0 mm 3 m/S 748 mmHg 46%
    13:00 +25°C° 0 mm 3 m/S 748 mmHg 45%
    14:00 +26°C° 0 mm 3 m/S 748 mmHg 45%
    15:00 +26°C° 0 mm 3 m/S 748 mmHg 48%
    16:00 +26°C° 0 mm 3 m/S 747 mmHg 51%
    17:00 +26°C° 0 mm 4 m/S 747 mmHg 54%
    18:00 +24°C° 0.1 mm 3 m/S 747 mmHg 64%
    19:00 +21°C° 0.1 mm 3 m/S 747 mmHg 75%
    20:00 +20°C° 0.1 mm 2 m/S 747 mmHg 85%
    21:00 +19°C° 0.1 mm 2 m/S 747 mmHg 87%
    22:00 +19°C° 0.1 mm 2 m/S 747 mmHg 89%
    23:00 +18°C° 0.1 mm 2 m/S 747 mmHg 91%

    28 Mai, Dienstag

    Zeit Temperatur Niederschläge Wind Luftdruck Luftfeuchtigkeit
    00:00 +18°C° 0.1 mm 2 m/S 747 mmHg 92%
    01:00 +19°C° 0.1 mm 1 m/S 747 mmHg 92%
    02:00 +19°C° 0.1 mm 1 m/S 747 mmHg 93%
    03:00 +19°C° 0 mm 1 m/S 747 mmHg 93%
    04:00 +18°C° 0 mm 2 m/S 747 mmHg 93%
    05:00 +18°C° 0 mm 2 m/S 747 mmHg 93%
    06:00 +19°C° 0 mm 2 m/S 747 mmHg 90%
    07:00 +20°C° 0 mm 2 m/S 747 mmHg 86%
    08:00 +21°C° 0 mm 3 m/S 747 mmHg 82%
    09:00 +22°C° 0.1 mm 3 m/S 746 mmHg 79%
    10:00 +22°C° 0.1 mm 4 m/S 746 mmHg 76%
    11:00 +23°C° 0.1 mm 4 m/S 746 mmHg 73%
    12:00 +25°C° 0.1 mm 4 m/S 746 mmHg 69%
    13:00 +26°C° 0.1 mm 4 m/S 746 mmHg 64%
    14:00 +28°C° 0.1 mm 4 m/S 746 mmHg 60%
    15:00 +28°C° 0.5 mm 4 m/S 745 mmHg 59%
    16:00 +28°C° 0.5 mm 4 m/S 745 mmHg 59%
    17:00 +28°C° 0.5 mm 4 m/S 745 mmHg 59%
    18:00 +26°C° 0 mm 4 m/S 745 mmHg 64%
    19:00 +23°C° 0 mm 4 m/S 745 mmHg 68%
    20:00 +22°C° 0 mm 3 m/S 745 mmHg 73%
    21:00 +21°C° 0 mm 3 m/S 745 mmHg 75%
    22:00 +21°C° 0 mm 3 m/S 745 mmHg 77%
    23:00 +20°C° 0 mm 3 m/S 745 mmHg 79%

    29 Mai, Mittwoch

    Zeit Temperatur Niederschläge Wind Luftdruck Luftfeuchtigkeit
    00:00 +19°C° 0 mm 4 m/S 745 mmHg 79%
    01:00 +19°C° 0 mm 4 m/S 745 mmHg 78%
    02:00 +18°C° 0 mm 4 m/S 744 mmHg 78%
    03:00 +18°C° 0 mm 4 m/S 744 mmHg 80%
    04:00 +18°C° 0 mm 4 m/S 744 mmHg 81%
    05:00 +17°C° 0 mm 4 m/S 744 mmHg 82%
    06:00 +18°C° 0.1 mm 4 m/S 745 mmHg 80%
    07:00 +19°C° 0.1 mm 4 m/S 745 mmHg 78%
    08:00 +21°C° 0.1 mm 4 m/S 745 mmHg 76%
    09:00 +22°C° 0 mm 4 m/S 745 mmHg 70%
    10:00 +25°C° 0 mm 4 m/S 745 mmHg 64%
    11:00 +27°C° 0 mm 4 m/S 745 mmHg 59%
    12:00 +28°C° 0.2 mm 4 m/S 745 mmHg 55%
    13:00 +29°C° 0.2 mm 4 m/S 745 mmHg 51%
    14:00 +30°C° 0.2 mm 4 m/S 745 mmHg 48%
    15:00 +29°C° 0.1 mm 4 m/S 745 mmHg 49%
    16:00 +29°C° 0.1 mm 4 m/S 745 mmHg 50%
    17:00 +28°C° 0.1 mm 4 m/S 745 mmHg 52%
    18:00 +26°C° 0.2 mm 3 m/S 745 mmHg 61%
    19:00 +24°C° 0.2 mm 2 m/S 746 mmHg 70%
    20:00 +22°C° 0.2 mm 1 m/S 746 mmHg 79%
    21:00 +21°C° 0 mm 1 m/S 746 mmHg 83%
    22:00 +20°C° 0 mm 1 m/S 746 mmHg 86%
    23:00 +20°C° 0 mm 1 m/S 747 mmHg 90%
    Mehr zeigen